Regional Weather Roundup
Issued by NWS

Home | Current Version | Previous Version | Graphics & Text | Print | Product List | Glossary On
Versions: 1 2 3 4 5 6 7 8 9 10 11 12 13 14 15 16 17 18 19 20 21 22 23 24 25 26 27 28 29 30 31 32 33 34 35 36 37 38 39 40 41 42 43 44 45 46 47 48 49 50
000
ASUS44 KMEG 051200
RWRTN
TENNESSEE HOURLY STATE WEATHER ROUNDUP
NATIONAL WEATHER SERVICE MEMPHIS TN
700 AM CDT TUE MAY 05 2015

TNZ002-004-019-021-049-052-054-088>092-051300-
WEST TENNESSEE

CITY           SKY/WX    TMP DP  RH WIND       PRES   REMARKS
MEMPHIS INTL   MOCLDY    67  56  67 S7        30.22R
NWS MEMPHIS      N/A     66 N/A N/A MISG        N/A
JACKSON        SUNNY     57  54  89 E3        30.24R
DYERSBURG      MOSUNNY   64  45  48 CALM      30.24R
PARIS          SUNNY     59  52  77 SE5       30.25R
LEXINGTON      SUNNY     54  52  94 CALM      30.25R
$$

TNZ008-025-027-028-033-062-065-066-051300-
NORTH MIDDLE TENNESSEE

CITY           SKY/WX    TMP DP  RH WIND       PRES   REMARKS
NASHVILLE      SUNNY     58  54  86 S3        30.29R
CLARKSVILLE    SUNNY     57  55  93 SE3       30.26R
COOKEVILLE     SUNNY     54  54 100 CALM      30.31R
CROSSVILLE     SUNNY     55  51  86 CALM      30.36R
$$

TNZ061-075-076-078-094-096-097-051300-
SOUTH MIDDLE TENNESSEE

CITY           SKY/WX    TMP DP  RH WIND       PRES   REMARKS
FAYETTEVILLE   SUNNY     57  54  88 CALM      30.30R
TULLAHOMA      SUNNY     55  52  88 CALM      30.32R
WINCHESTER     SUNNY     61  54  77 E6        30.32R
SHELBYVILLE    SUNNY     59  55  88 E6        30.31R
$$

TNZ017-018-042-046-047-051300-
NORTHEAST TENNESSEE

CITY           SKY/WX    TMP DP  RH WIND       PRES   REMARKS
TRI CITIES     MOSUNNY   55  52  89 CALM      30.37R
ELIZABETHTON   SUNNY     55  50  82 NE3       30.38R
$$

TNZ012-013-036-069-073-074-051300-
CENTRAL EAST TENNESSEE

CITY           SKY/WX    TMP DP  RH WIND       PRES   REMARKS
KNOXVILLE      MOSUNNY   59  53  80 CALM      30.33R
OAK RIDGE      SUNNY     56  52  86 CALM      30.35R
GATLINBURG     SUNNY     55  52  88 CALM      30.35R
$$

TNZ083-085-099-051300-
SOUTHEAST TENNESSEE

CITY           SKY/WX    TMP DP  RH WIND       PRES   REMARKS
CHATTANOOGA    MOSUNNY   57  54  89 CALM      30.34R
$$

SKY/WX REPORTED AS FAIR MEANS FEW OR NO CLOUDS BELOW
12 THOUSAND FEET.




USA.gov is the U.S. government's official web portal to all federal, state and local government web resources and services.